Showing default

TIANQI-6, 46810

Orbit data source: Space-Track

TIANQI-6, 46810 is a payload satellite owned by Guodian Gaokeji (CN) in LEO that was launched on Mon, 26 Oct 2020 UTC via a CHANG ZHENG 2C launch vehicle from the Xichang Space Center, China (XSC). Payload-class satellites include a variety of spacecraft equipped with specific instruments for various scientific and technological missions. These include communications satellites like Starlink; space stations such as the ISS; scientific satellites like the Hubble; Earth observation satellites from companies like Planet Labs, Umbra, and HawkEye 360; GPS; miniature CubeSats for education and research; and military/defense satellites.

Loading next visibility...
Identifier
46810, 2020-076D
Orbit
LEO
Country
Flag of CNCN / PRC
Related business
Manufacturer
Shanghai ASES
Mission
Operational Commercial Communications
Bus & Motor
STARLIGHTB, Unknown motor
Mass
40 kg wet, ~40 kg dry
Launch date (UTC)
2020-10-26 (5 years ago)
Launch vehicle
CHANG ZHENG 2C
Launch site
Xichang Space Center, China (XSC)
Object type
Payload
Rocket body
Debris
Shape & HBR
Box, 0.3 m
Radar Cross Section
0.195 m², Medium (>0.1 m² and < 1m²)

Expand to show TLE details & history
Last TLE update: 13 hours ago

TLE from 13 hours ago
0 TIANQI-6
1 46810U 20076D   25300.67217510  .00005998  00000-0  41696-3 0  9993
2 46810  35.0010  33.2323 0011022 282.1775  77.7700 15.04849231273506
Epoch: 2025-10-27T16:07Z
TLE epoch observation values (Epoch: 2025-10-27T16:07:55.928Z)
Latitude
0.00002°
Longitude
114.97863°
Altitude
549.275 km
Speed
7.59 km/s
True Right ascension
02h 12m 55s
True Declination
0° 00' 00"
Sunlit
Object was in full shadow at epoch
Visualization orbit readout
Latitude
Unknown
Longitude
Unknown
Altitude
Unknown
Speed
Unknown
Apparent Right ascension
Unknown
Apparent Declination
Unknown
Sunlit
N/A
Visualization observer readout
Local Sidereal Time
00:42:02
Azimuth
Unknown
Elevation
Unknown
Doppler factor
Unknown
Orbital elements
Apogee altitude
562.835 km
Perigee altitude
547.551 km
Semi-major axis
6,933.33 km
Eccentricity
0.0011
Inclination
35.001°
RAAN
33.2323°
Arg. of periapsis
282.1775°
True anomaly
77.89347°
Mean anomaly
77.77°
Eccentric anomaly
77.83173°
Mean motion
3.7595 °/min
Orbital period
95.76 mins
BSTAR
0.00041696
Loading maneuver chart data...
Computing Atmospheric mass density...
Loading historical data...
Loading historical data...
Loading historical data...
Loading historical data...
Loading historical data...
Loading historical data...
Loading historical data...
Other satellites on launch #76 in the year 2020 (2020-10-26 UTC)

Documentation

Showing up to 5 results
|